Date String (YYYY-MM-DD hh:mm:ss) UTC,Instrument flags,Ambient pressure (hPa),Sample flow (lpm),Bypass flow (lpm),Sample temperature (°C),Ambient temperature (°C),ASC tube jacket temperature (°C),LED temperature (°C),Box temperature (°C),Sample RH (%),Span deviation,Mass concentration (μg/m³),Mass concentration (μg/m³),Mass concentration (μg/m³)
DateTimeUTC,F1_M11,P_M11,Q1_M11,Q2_M11,T1_M11,T2_M11,T3_M11,T4_M11,T5_M11,U1_M11,ZSPAN_M11,X0_M11,X2_M11,X1_M11
2023-03-02 19:00:00,,0815.8,5.00,0.00,23.4,21.9,00.0,32.1,25.2,12.5,0000.0,0009.73,0006.21,0005.86
2023-03-02 19:01:00,,0815.9,5.00,0.00,23.4,21.9,00.0,32.1,25.2,12.7,0000.0,0009.66,0006.15,0005.78
2023-03-02 19:02:00,,0815.8,5.01,0.00,23.4,21.8,00.0,32.1,25.2,12.9,0000.0,0009.77,0006.12,0005.73
2023-03-02 19:03:00,,0815.8,5.00,0.00,23.4,21.8,00.0,32.1,25.1,13.1,0000.0,0009.63,0006.09,0005.70
2023-03-02 19:04:00,,0815.8,4.99,0.00,23.4,21.9,00.0,32.1,25.2,13.0,0000.0,0009.32,0006.03,0005.66
2023-03-02 19:05:00,,0815.8,5.01,0.00,23.4,21.8,00.0,32.1,25.2,12.9,0000.0,0009.25,0005.98,0005.63
2023-03-02 19:06:00,,0815.8,5.00,0.00,23.4,21.9,00.0,32.1,25.2,13.1,0000.0,0009.12,0005.94,0005.59
2023-03-02 19:07:00,,0815.8,4.99,0.00,23.4,21.9,00.0,32.1,25.2,13.6,0000.0,0009.06,0005.94,0005.59
2023-03-02 19:08:00,,0815.8,4.99,0.00,23.4,21.9,00.0,32.1,25.2,13.6,0000.0,0009.00,0005.97,0005.62
2023-03-02 19:09:00,,0815.7,5.00,0.00,23.4,21.9,00.0,32.1,25.2,13.5,0000.0,0009.05,0006.00,0005.66
2023-03-02 19:10:00,,0815.8,5.00,0.00,23.3,21.9,00.0,32.1,25.1,13.1,0000.0,0009.16,0006.07,0005.71
2023-03-02 19:11:00,,0815.8,5.01,0.00,23.3,21.7,00.0,32.1,25.0,13.2,0000.0,0009.47,0006.16,0005.76
2023-03-02 19:12:00,,0815.7,5.00,0.00,23.3,21.7,00.0,32.1,25.1,13.3,0000.0,0009.82,0006.22,0005.79
2023-03-02 19:13:00,,0815.7,4.98,0.00,23.3,21.7,00.0,32.1,25.1,13.2,0000.0,0009.74,0006.20,0005.78
2023-03-02 19:14:00,,0815.7,5.01,0.00,23.3,21.7,00.0,32.1,25.1,13.4,0000.0,0009.76,0006.19,0005.75
2023-03-02 19:15:00,,0815.7,5.00,0.00,23.3,21.7,00.0,32.1,25.1,13.4,0000.0,0009.81,0006.23,0005.77
2023-03-02 19:16:00,,0815.7,5.00,0.00,23.3,21.7,00.0,32.1,25.1,13.2,0000.0,0009.76,0006.26,0005.79
2023-03-02 19:17:00,,0815.7,5.02,0.00,23.3,21.6,00.0,32.1,25.0,13.6,0000.0,0009.80,0006.31,0005.85
2023-03-02 19:18:00,,0815.7,5.00,0.00,23.3,21.6,00.0,32.1,25.0,13.8,0000.0,0010.13,0006.38,0005.93
2023-03-02 19:19:00,,0815.7,5.00,0.00,23.2,21.5,00.0,32.0,25.0,13.6,0000.0,0010.20,0006.44,0005.99
2023-03-02 19:20:00,,0815.7,5.01,0.00,23.2,21.5,00.0,32.0,24.9,13.5,0000.0,0010.18,0006.46,0006.03
2023-03-02 19:21:00,,0815.6,4.99,0.00,23.2,21.4,00.0,32.0,24.9,13.4,0000.0,0010.18,0006.47,0006.05
2023-03-02 19:22:00,,0816.0,5.01,0.00,23.1,21.4,00.0,32.0,24.9,13.4,0000.0,0010.11,0006.49,0006.07
2023-03-02 19:23:00,,0816.1,5.00,0.00,23.1,21.4,00.0,32.0,24.9,13.5,0000.0,0009.87,0006.51,0006.10
2023-03-02 19:24:00,,0815.8,5.00,0.00,23.1,21.5,00.0,32.0,24.9,13.6,0000.0,0009.82,0006.53,0006.14
2023-03-02 19:25:00,,0815.8,4.99,0.00,23.2,21.6,00.0,32.0,25.0,14.1,0000.0,0009.70,0006.53,0006.17
2023-03-02 19:26:00,,0815.5,4.98,0.00,23.2,21.7,00.0,32.0,25.0,13.6,0000.0,0009.71,0006.54,0006.18
2023-03-02 19:27:00,,0815.5,5.00,0.00,23.2,21.7,00.0,32.0,25.0,13.6,0000.0,0009.83,0006.54,0006.18
2023-03-02 19:28:00,,0815.5,4.99,0.00,23.2,21.7,00.0,32.0,25.0,13.7,0000.0,0010.14,0006.50,0006.12
2023-03-02 19:29:00,,0815.4,5.00,0.00,23.2,21.7,00.0,32.0,25.0,13.5,0000.0,0009.71,0006.37,0005.99
2023-03-02 19:30:00,,0815.4,5.00,0.00,23.2,21.6,00.0,32.0,24.9,12.9,0000.0,0009.49,0006.21,0005.85
2023-03-02 19:31:00,,0815.4,5.00,0.00,23.1,21.5,00.0,31.9,24.9,12.4,0000.0,0009.30,0006.06,0005.70
2023-03-02 19:32:00,,0815.4,5.00,0.00,23.1,21.5,00.0,31.9,24.8,12.4,0000.0,0009.06,0005.90,0005.56
2023-03-02 19:33:00,,0815.4,5.01,0.00,23.1,21.4,00.0,31.9,24.8,12.4,0000.0,0008.81,0005.73,0005.41
2023-03-02 19:34:00,,0815.3,5.01,0.00,23.1,21.4,00.0,31.9,24.8,12.4,0000.0,0009.14,0005.52,0005.24
2023-03-02 19:35:00,,0815.4,5.01,0.00,23.1,21.5,00.0,31.9,24.9,12.8,0000.0,0009.12,0005.37,0005.07
2023-03-02 19:36:00,,0815.3,5.00,0.00,23.1,21.5,00.0,31.9,24.9,12.8,0000.0,0009.16,0005.22,0004.91
2023-03-02 19:37:00,,0815.4,4.99,0.00,23.1,21.5,00.0,31.9,24.9,12.6,0000.0,0009.40,0005.04,0004.76
2023-03-02 19:38:00,,0815.4,5.00,0.00,23.1,21.4,00.0,31.9,24.8,13.0,0000.0,0009.32,0004.91,0004.64
2023-03-02 19:39:00,,0815.4,5.00,0.00,23.0,21.4,00.0,31.9,24.8,12.7,0000.0,0008.94,0004.81,0004.52
2023-03-02 19:40:00,,0815.3,5.00,0.00,23.0,21.3,00.0,31.8,24.8,12.7,0000.0,0008.88,0004.73,0004.45
2023-03-02 19:41:00,,0815.2,5.02,0.00,23.0,21.4,00.0,31.8,24.8,12.8,0000.0,0008.96,0004.69,0004.40
2023-03-02 19:42:00,,0815.2,5.00,0.00,23.0,21.4,00.0,31.8,24.8,13.3,0000.0,0008.95,0004.67,0004.38
2023-03-02 19:43:00,,0815.2,5.00,0.00,23.0,21.4,00.0,31.8,24.8,13.2,0000.0,0008.98,0004.66,0004.36
2023-03-02 19:44:00,,0815.2,5.00,0.00,23.0,21.4,00.0,31.8,24.8,12.9,0000.0,0008.96,0004.66,0004.37
2023-03-02 19:45:00,,0815.2,5.00,0.00,23.0,21.4,00.0,31.8,24.8,12.8,0000.0,0008.60,0004.71,0004.40
2023-03-02 19:46:00,,0815.1,5.00,0.00,23.0,21.4,00.0,31.8,24.8,13.3,0000.0,0008.40,0004.73,0004.43
2023-03-02 19:47:00,,0815.2,5.00,0.00,23.0,21.4,00.0,31.8,24.8,13.4,0000.0,0008.37,0004.77,0004.48
2023-03-02 19:48:00,,0815.1,5.00,0.00,23.0,21.4,00.0,31.8,24.8,13.5,0000.0,0007.95,0004.84,0004.53
2023-03-02 19:49:00,,0815.1,5.00,0.00,23.0,21.3,00.0,31.8,24.8,13.2,0000.0,0007.76,0004.84,0004.55
2023-03-02 19:50:00,,0815.2,4.99,0.00,23.0,21.3,00.0,31.8,24.8,13.1,0000.0,0007.68,0004.84,0004.59
2023-03-02 19:51:00,,0815.1,5.00,0.00,23.0,21.2,00.0,31.8,24.7,13.2,0000.0,0007.77,0004.89,0004.63
2023-03-02 19:52:00,,0815.1,5.00,0.00,22.9,21.2,00.0,31.7,24.7,13.1,0000.0,0007.82,0004.94,0004.67
2023-03-02 19:53:00,,0815.1,5.00,0.00,22.9,21.1,00.0,31.7,24.7,12.9,0000.0,0007.80,0004.98,0004.69
2023-03-02 19:54:00,,0815.0,5.00,0.00,22.9,21.1,00.0,31.7,24.7,12.6,0000.0,0007.98,0004.98,0004.68
2023-03-02 19:55:00,,0815.1,5.00,0.00,22.9,21.0,00.0,31.7,24.6,13.1,0000.0,0008.42,0005.01,0004.71
2023-03-02 19:56:00,,0815.1,5.00,0.00,22.9,21.0,00.0,31.7,24.6,13.4,0000.0,0008.45,0005.05,0004.74
2023-03-02 19:57:00,,0814.9,5.00,0.00,22.8,20.9,00.0,31.7,24.6,13.3,0000.0,0008.45,0005.10,0004.79
2023-03-02 19:58:00,,0815.1,5.00,0.00,22.8,21.0,00.0,31.7,24.6,13.4,0000.0,0008.48,0005.12,0004.82
2023-03-02 19:59:00,,0815.2,5.01,0.00,22.8,21.0,00.0,31.7,24.6,13.3,0000.0,0008.51,0005.14,0004.85
